Blountville, TN

11:27 PM EST on January 20, 2017 (GMT -0500)
Tri-Cities Regional Tennessee / Virginia

Weather History for KTRI - August, 2014

Change the Weather History Date:

Sunday, August 31, 2014

  Actual Average Record
Temperature  
Mean Temperature 76 °F 72 °F  
Max Temperature 85 °F 84 °F 98 °F (1953)
Min Temperature 67 °F 60 °F 47 °F (1946)
Degree Days  
Heating Degree Days 0 0  
Month to date heating degree days 0 0  
Since 1 June heating degree days 0 12  
Since 1 July heating degree days 0 1  
Cooling Degree Days 11 7  
Month to date cooling degree days 269 274  
Year to date cooling degree days 957 852  
Since 1 June cooling degree days 823 779  
Growing Degree Days 26 (Base 50)    
Moisture  
Dew Point 67 °F    
Average Humidity 74    
Maximum Humidity 93    
Minimum Humidity 55    
Precipitation  
Precipitation 0.61 in 0.10 in 2.07 in (2006)
Month to date precipitation 4.21 3.47  
Year to date precipitation 25.04 29.45  
Snow  
Snow 0.00 in 0.00 in - ()
Month to date snowfall 0.0 0.0  
Since 1 June snowfall 0.0 0.0  
Since 1 July snowfall 0.0 0.0  
Snow Depth 0.00 in    
Sea Level Pressure  
Sea Level Pressure 30.12 in    
Wind  
Wind Speed 4 mph (WSW)    
Max Wind Speed 26 mph    
Max Gust Speed 33 mph    
Visibility 8 miles    
Events Fog , Rain    
T = Trace of Precipitation, MM = Missing Value Source: NWS Daily Summary

Daily Weather History Graph

Daily Weather History Graph

Search for Another Location

Airport or City:

Trip Planner

Search our weather history database for the weather conditions in past years. The results will help you decide how hot, cold, wet, or windy it might be!

Date:

Astronomy

Aug. 31, 2014 Rise Set
Actual Time 7:00 AM EDT 7:59 PM EDT
Civil Twilight 6:33 AM EDT 8:25 PM EDT
Nautical Twilight 6:02 AM EDT 8:56 PM EDT
Astronomical Twilight 5:29 AM EDT 9:29 PM EDT
Moon 12:35 PM EDT (8/31) 11:23 PM EDT (8/31)
Length of Visible Light 13h 51m
Length of Day
12h 58m
Waxing Crescent, 32% of the Moon is Illuminated
Aug 31
Waxing Crescent
Sep 2
First Quarter
Sep 8
Full
Sep 15
Last Quarter
Sep 24
New

Hourly Weather History & Observations

Time (EDT) Temp. Heat Index Dew Point Humidity Pressure Visibility Wind Dir Wind Speed Gust Speed Precip Events Conditions
12:53 AM 75.0 °F - 64.9 °F 71% 30.07 in 10.0 mi Calm Calm - N/A   Overcast
1:53 AM 73.0 °F - 66.0 °F 79% 30.07 in 10.0 mi Calm Calm - N/A   Overcast
2:16 AM 72.0 °F - 68.0 °F 87% 30.19 in 1.8 mi West 19.6 mph 33.4 mph 0.07 in Rain Heavy Rain
2:22 AM 71.1 °F - 68.0 °F 90% 30.19 in 1.0 mi West 12.7 mph 26.5 mph 0.20 in Rain Heavy Rain
2:28 AM 71.6 °F - 69.8 °F 94% 30.19 in 1.5 mi WSW 8.1 mph - N/A Rain Heavy Rain
2:33 AM 72.0 °F - 69.1 °F 91% 30.20 in 3.0 mi WSW 10.4 mph - 0.33 in Rain Light Rain
2:41 AM 71.1 °F - 68.0 °F 90% 30.20 in 3.0 mi West 6.9 mph - 0.35 in Rain Heavy Rain
2:53 AM 70.0 °F - 66.9 °F 90% 30.12 in 4.0 mi WSW 10.4 mph - 0.39 in Rain Rain
3:02 AM 70.0 °F - 66.9 °F 90% 30.20 in 2.0 mi West 6.9 mph - 0.04 in Rain Heavy Rain
3:07 AM 70.0 °F - 66.0 °F 87% 30.20 in 2.0 mi West 12.7 mph - 0.09 in Rain Heavy Rain
3:17 AM 69.1 °F - 66.0 °F 90% 30.20 in 5.0 mi SW 3.5 mph - 0.11 in Rain Rain
3:53 AM 69.1 °F - 66.0 °F 90% 30.12 in 6.0 mi Calm Calm - 0.15 in Rain Rain
4:02 AM 68.0 °F - 66.0 °F 93% 30.19 in 5.0 mi East 3.5 mph - 0.04 in Rain Heavy Rain
4:12 AM 69.1 °F - 66.0 °F 90% 30.18 in 10.0 mi East 3.5 mph - 0.05 in Rain Light Rain
4:53 AM 69.1 °F - 66.0 °F 90% 30.10 in 10.0 mi Calm Calm - 0.05 in Rain Light Rain
5:53 AM 68.0 °F - 66.0 °F 93% 30.10 in 10.0 mi Calm Calm - 0.00 in   Mostly Cloudy
6:53 AM 68.0 °F - 66.0 °F 93% 30.11 in 6.0 mi Calm Calm - N/A   Mostly Cloudy
7:12 AM 68.0 °F - 66.0 °F 93% 30.19 in 8.0 mi Calm Calm - N/A Fog Patches of Fog
7:53 AM 69.1 °F - 66.0 °F 90% 30.12 in 8.0 mi Calm Calm - N/A Fog Patches of Fog
8:53 AM 71.1 °F - 66.9 °F 87% 30.11 in 10.0 mi Calm Calm - N/A   Mostly Cloudy
9:53 AM 73.9 °F - 68.0 °F 82% 30.11 in 10.0 mi Calm Calm - N/A   Mostly Cloudy
10:53 AM 77.0 °F - 68.0 °F 74% 30.12 in 10.0 mi Calm Calm - N/A   Mostly Cloudy
11:53 AM 80.1 °F 82.7 °F 68.0 °F 67% 30.11 in 10.0 mi Calm Calm - N/A   Mostly Cloudy
12:53 PM 82.9 °F 85.8 °F 68.0 °F 60% 30.09 in 10.0 mi Calm Calm - N/A   Mostly Cloudy
1:53 PM 84.0 °F 86.5 °F 66.9 °F 56% 30.09 in 10.0 mi West 10.4 mph 16.1 mph N/A   Mostly Cloudy
2:53 PM 82.9 °F 85.0 °F 66.0 °F 56% 30.08 in 10.0 mi West 11.5 mph - N/A   Overcast
3:53 PM 82.9 °F 85.0 °F 66.0 °F 56% 30.06 in 10.0 mi WSW 10.4 mph - N/A   Overcast
4:53 PM 84.0 °F 86.5 °F 66.9 °F 56% 30.04 in 10.0 mi West 12.7 mph - N/A   Mostly Cloudy
5:53 PM 81.0 °F 84.1 °F 69.1 °F 67% 30.06 in 10.0 mi West 9.2 mph - N/A   Mostly Cloudy
6:53 PM 79.0 °F - 68.0 °F 69% 30.05 in 10.0 mi WNW 6.9 mph - N/A   Mostly Cloudy
7:53 PM 78.1 °F - 68.0 °F 71% 30.06 in 10.0 mi West 3.5 mph - N/A   Mostly Cloudy
8:53 PM 77.0 °F - 69.1 °F 76% 30.07 in 10.0 mi Calm Calm - N/A   Mostly Cloudy
9:53 PM 75.0 °F - 70.0 °F 84% 30.08 in 10.0 mi South 4.6 mph - 0.02 in   Overcast
10:53 PM 75.0 °F - 70.0 °F 84% 30.07 in 10.0 mi SSE 3.5 mph - N/A   Overcast
11:53 PM 73.0 °F - 69.1 °F 87% 30.06 in 10.0 mi Calm Calm - N/A   Overcast